Regional Weather Roundup
Issued by NWS

Home | Current Version | Previous Version | Text Only | Print | Product List | Glossary Off
Versions: 1 2 3 4 5 6 7 8 9 10 11 12 13 14 15 16 17 18 19 20 21 22 23 24 25 26 27 28 29 30 31 32 33 34 35 36 37 38 39 40 41 42 43 44 45 46 47 48 49 50

000
ASUS43 KLMK 162202
RWRKY
KENTUCKY REGIONAL WEATHER ROUNDUP
NATIONAL WEATHER SERVICE LOUISVILLE KY
600 PM EDT TUE SEP 16 2014

NOTE "FAIR" INDICATES FEW OR NO CLOUDS BELOW 12,000 FEET
WITH NO SIGNIFICANT WEATHER AND/OR OBSTRUCTIONS TO VISIBILITY.

KYZ001>023-026-027-061>063-070>075-162300-
WESTERN AND SOUTH CENTRAL KENTUCKY

CITY           SKY/WX    TMP DP  RH WIND       PRES   REMARKS
PADUCAH        SUNNY     71  54  54 N6        30.09F
HENDERSON      CLOUDY    64  52  63 N6        30.11F
OWENSBORO      CLOUDY    67  53  60 N6        30.10S
HOPKINSVILLE   SUNNY     69  55  60 NE5       30.08F
BOWLING GREEN  MOSUNNY   73  56  54 CALM      30.07F
GLASGOW        SUNNY     70  54  57 CALM      30.07S
$$

KYZ024-025-028>034-038-045-046-053-162300-
NORTH CENTRAL KENTUCKY

CITY           SKY/WX    TMP DP  RH WIND       PRES   REMARKS
LOUISVILLE/SDF MOSUNNY   67  55  65 N13       30.09F
LOUISVILLE/LOU MOSUNNY   66  55  67 N9        30.10S
FORT KNOX      SUNNY     66  55  68 N10       30.08S
$$

KYZ035>037-039>044-047>052-055>060-089>105-162300-
NORTHEAST KENTUCKY

CITY           SKY/WX    TMP DP  RH WIND       PRES   REMARKS
LEXINGTON      SUNNY     66  55  67 N12       30.09S
COVINGTON      CLOUDY    60  51  72 N7        30.12F
FRANKFORT      SUNNY     65  53  65 N9        30.09S
$$

KYZ054-064>069-076>088-106>120-162300-
SOUTHEAST KENTUCKY

CITY           SKY/WX    TMP DP  RH WIND       PRES   REMARKS
JACKSON        MOSUNNY   63  59  87 CALM      30.08F
LONDON         PTSUNNY   70  58  65 N12       30.07S
SOMERSET       NOT AVBL
MIDDLESBORO    PTSUNNY   70  62  73 CALM      30.06F
MONTICELLO     CLEAR     74  58  57 NW7       30.07F
$$




USA.gov is the U.S. government's official web portal to all federal, state and local government web resources and services.